Flag for Germany Weather past 2 weeks in Erftstadt, North Rhine-Westphalia, Germany

Now
36 °F

Partly cloudy.


Feels Like: 30 °F
Forecast: 20 / 29 °F
Wind: 7 mph from East

Location: Noervenich

Current Time: Dec 27, 2014 at 2:45:13 AM

Latest Report: Dec 27, 2014 at 1:20 AM


Visibility: N/A

Pressure: 29.95 "Hg

Humidity: 87%

Dew point: 32 °F

Location of ErftstadtLocation

Historic Weather in Erftstadt — Graph

°F

Erftstadt temperature yesterday

Maximum temperature yesterday: 41 °F (at 1:20 PM)
Minimum temperature yesterday: 34 °F (at 8:20 PM)
Average temperature yesterday: 37 °F

Past Weeks' High & Low Weather Summary

 TemperatureHumidityPressure
High55 °F (Dec 18, 3:20 PM)100% (Dec 13, 2:20 AM)30.42 "Hg (Dec 13, 2:20 AM)
Low32 °F (Dec 14, 4:20 AM)67% (Dec 12, 10:20 AM)29.45 "Hg (Dec 12, 2:04 PM)
Average44 °F84%30.01 "Hg
* Reported Dec 12 1:20 AM — Dec 27 1:20 AM, Erftstadt, Weather by CustomWeather, © 2014

Note: Actual official high and low records may vary slightly from our data, if they occured in-between our weather recording intervals... More about our weather records

Advertising

Erftstadt weather history for previous 24 hours

 ConditionsComfort  
Time TempWeatherWind HumidityBarometerVisibility
1:20 AM
Dec 27
36 °FPartly cloudy.7 mph87%29.95 "HgN/A
12:20 AM36 °FPartly cloudy.6 mph87%30.04 "HgN/A
11:20 PM
Dec 26
36 °FPassing clouds.5 mph81%30.09 "HgN/A
10:20 PM36 °FPartly cloudy.5 mph87%30.12 "HgN/A
9:20 PM34 °FPassing clouds.2 mph93%30.18 "HgN/A
8:20 PM34 °FPassing clouds.2 mph93%30.24 "HgN/A
7:20 PM36 °FPartly cloudy.2 mph93%30.27 "HgN/A
6:20 PM37 °FPartly cloudy.2 mph87%30.27 "HgN/A
5:20 PM37 °FPartly cloudy.1 mph87%30.30 "HgN/A
4:20 PM37 °FPartly sunny.No wind87%30.33 "HgN/A
3:20 PM39 °FBroken clouds.3 mph87%30.33 "HgN/A
2:20 PM41 °FBroken clouds.6 mph81%30.36 "HgN/A
1:20 PM41 °FBroken clouds.6 mph81%30.36 "HgN/A
12:20 PM39 °FBroken clouds.6 mph87%30.39 "HgN/A
11:20 AM39 °FScattered clouds.10 mph93%30.39 "HgN/A
10:20 AM37 °FScattered clouds.9 mph93%30.39 "HgN/A
9:20 AM36 °FBroken clouds.6 mph93%30.39 "HgN/A
8:20 AM36 °FPartly cloudy.5 mph100%30.39 "Hg5 mi
7:20 AM37 °FPartly cloudy.7 mph93%30.39 "HgN/A
6:20 AM36 °FPartly cloudy.7 mph93%30.39 "HgN/A
5:20 AM37 °FPartly cloudy.7 mph93%30.39 "HgN/A
4:20 AM36 °FPassing clouds.8 mph93%30.39 "HgN/A
3:20 AM36 °FPassing clouds.8 mph93%30.39 "HgN/A
2:20 AM37 °FPassing clouds.8 mph87%30.36 "HgN/A
Weather by CustomWeather, © 2014

See weather overviewHow to use our weather pages